Regional Weather Roundup
Issued by NWS

Home | Current Version | Previous Version | Graphics & Text | Print | Product List | Glossary Off
Versions: 1 2 3 4 5 6 7 8 9 10 11 12 13 14 15 16 17 18 19 20 21 22 23 24 25 26 27 28 29 30 31 32 33 34 35 36 37 38 39 40 41 42 43 44 45 46 47 48 49 50

000
ASUS43 KMKX 180900
RWRWI

WISCONSIN REGIONAL WEATHER ROUNDUP
NATIONAL WEATHER SERVICE MILWAUKEE/SULLIVAN WI
300 AM CST WED JAN 18 2017

NOTE: "FAIR" INDICATES FEW OR NO CLOUDS BELOW 12,000 FEET WITH NO
SIGNIFICANT WEATHER AND/OR OBSTRUCTIONS TO VISIBILITY.

WIZ001-002-006>008-014>016-023>028-181000-
NORTHWEST WISCONSIN

CITY           SKY/WX    TMP DP  RH WIND       PRES   REMARKS
SUPERIOR ARPT  CLOUDY    24  23  95 SW7       29.86S WCI  16
ASHLAND        CLOUDY    27  24  89 SW15      29.86R WCI  15
HAYWARD        CLOUDY    29  27  92 SW9       29.91R WCI  20
SIREN          CLOUDY    29  27  92 SW9       29.93R FOG     WCI  20
CUMBERLAND     CLOUDY    28  27  93 SW15      29.93R FOG     WCI  17
RICE LAKE      CLOUDY    30  29  96 S8        29.95S WCI  23
CHETEK         CLOUDY    30  29  96 SW6       29.95S WCI  24
LADYSMITH      FOG       31  30  98 SW10      29.94S VSB 1   WCI  22
EAU CLAIRE     NOT AVBL
MENOMONIE      CLOUDY    30  29  94 MISG      29.98S
NEW RICHMOND   CLOUDY    28  28 100 S12       29.97R WCI  18
OSCEOLA        CLOUDY    29  29 100 S10       29.99R WCI  20
$$

WIZ003>005-009-010-017-018-181000-
NORTH CENTRAL WISCONSIN

CITY           SKY/WX    TMP DP  RH WIND       PRES   REMARKS
MANITOWISH WTR NOT AVBL
ARBOR VITAE    CLOUDY    19  17  93 S5        29.87F FOG     WCI  12
WOODRUFF       CLOUDY    19  17  93 S5        29.87F FOG     WCI  12
RHINELANDER    CLOUDY    24  22  91 SW7       29.89F FOG     WCI  16
EAGLE RIVER    PTCLDY    14  13  95 CALM      29.88F
LAND O LAKES   CLOUDY    10   8  89 S3        29.88F
PHILLIPS       CLOUDY   N/A N/A N/A SW6       29.90S FOG
TOMAHAWK       CLOUDY    24  22  95 SW3       29.91F FOG
MEDFORD        FOG       28  27  99 SW5       29.93F VSB 1/4 WCI  22
MERRILL        FOG       27  27 100 CALM        N/A  VSB 3/4
$$

WIZ029-030-035-036-043>047-181000-
CENTRAL WISCONSIN

CITY           SKY/WX    TMP DP  RH WIND       PRES   REMARKS
WAUSAU         FOG       28  28 100 SW5       29.94S VSB 1/2 WCI  23
MOSINEE        FOG       30  30 100 W6        29.97S VSB 1/4 WCI  24
MARSHFIELD     FOG       30  29  96 W9        29.95F VSB 1/4 WCI  22
STEVENS POINT  FOG       29  29 100 SW8       29.98S VSB 1/2 WCI  21
WAUPACA        CLOUDY    34  33  95 W7        29.99R FOG     WCI  28
WAUTOMA        CLOUDY    32  32 100 W10       30.00F FOG     WCI  24
WISC RAPIDS    NOT AVBL
CAMP DOUGLAS   CLOUDY    32  32 100 SW6       30.01S FOG     WCI  26
$$

WIZ011>013-019>022-031-037>040-048>050-181000-
NORTHEAST WISCONSIN

CITY           SKY/WX    TMP DP  RH WIND       PRES   REMARKS
ANTIGO         FOG       19  19  97 CALM      29.93S VSB 1/2
SHAWANO        CLOUDY    32  31  96 CALM      29.97R FOG
OCONTO         CLOUDY    32  32  99 W5        29.96R VSB 1/4 WCI  27
STURGEON BAY   FOG       32  32 100 S3        29.96S VSB 3/4
GREEN BAY      FOG       34  34 100 SW5       29.97R VSB 1/4 WCI  30
MANITOWOC      CLOUDY    34  34 100 W7        29.98S FOG     WCI  28
APPLETON       FOG       32  32 100 W10       29.96R VSB 1/4 WCI  24
CLINTONVILLE   CLOUDY    32  32 100 W6        29.98R FOG     WCI  26
OSHKOSH        FOG       33  32  96 W5        29.99R VSB 1/2 WCI  29
$$

WIZ032>034-041-042-053>061-181000-
SOUTHWEST WISCONSIN

CITY           SKY/WX    TMP DP  RH WIND       PRES   REMARKS
LA CROSSE      CLOUDY    35  31  85 SW9       30.04S WCI  28
SPARTA         FOG       31  31 100 W6        30.04R VSB 3/4 WCI  26
VIROQUA        CLOUDY    31  31 100 W10       30.02S VSB 1/4 WCI  23
BOSCOBEL       CLOUDY    34  32  92 SW6       30.07S WCI  29
PRAIRIE DU CHI CLOUDY    33  32  95 W10       30.08R WCI  25
PLATTEVILLE    CLOUDY    32  32 100 W10       30.07R VSB 3/4 WCI  24
$$

WIZ056-057-062-063-064-067-068-181000-
SOUTH CENTRAL WISCONSIN

CITY           SKY/WX    TMP DP  RH WIND       PRES   REMARKS
REEDSBURG      CLOUDY    32  32 100 W9        30.03R FOG     WCI  24
BARABOO/DELLS  FOG       32  32 100 W9        30.02R VSB 1/2 WCI  24
LONE ROCK      CLOUDY    34  32  92 W9        30.06R FOG     WCI  27
MINERAL POINT  FOG       34  34 100 W10       30.05R VSB 1/2 WCI  26
MADISON        CLOUDY    34  33  96 VRB6      30.04R FOG     WCI  29
MIDDLETON      CLOUDY    35  35 100 W8        30.03R WCI  28
WATERTOWN      CLOUDY    33  33 100 W6        30.01R FOG     WCI  28
MONROE         FOG       32  32 100 W8        30.04R VSB 1/2 WCI  25
JANESVILLE     CLOUDY    34  34 100 SW6       30.04R FOG     WCI  29
$$

WIZ051-052-058>065-066-070>072-181000-
SOUTHEAST WISCONSIN

CITY           SKY/WX    TMP DP  RH WIND       PRES   REMARKS
MILWAUKEE      MOCLDY    36  33  89 W5        30.02R WCI  32
WAUKESHA       CLOUDY    32  32 100 W6        30.02R FOG     WCI  26
MILWAUKEE/TIMM CLOUDY    34  32  93 W5        30.02R FOG     WCI  30
RACINE         CLOUDY    35  33  92 W7        30.04R WCI  29
KENOSHA        CLOUDY    34  33  96 W8        30.03R FOG     WCI  27
FOND DU LAC    FOG       34  31  88 W9        30.00R VSB 1/2 WCI  27
SHEBOYGAN      CLOUDY    34  32  92 W10       29.98S FOG     WCI  26
WEST BEND      CLOUDY    34  34 100 SW3       30.00R FOG
JUNEAU         FOG       33  32  99 SW7       30.02R VSB 1/4 WCI  26
$$

LSZ147-162-181000-
LAKE SUPERIOR

STATION/POSITION TIME  TEMP    WIND        PRES    WAVE
                       AIR SEA DIR/SP/G            HT/PER
                 (UTC) (F)     (DEG/KT/KT) (MB)    (FT/S)
DEVILS ISLAND    0800   31     240/ 18/ 22 1010.9F
PORT WING        0840   28     200/  4/  8 1010.8F
SAXON HARBOR     0840   31     200/  6/ 12 1010.5F
$$

LMZ867-665-643>646-181000-
LAKE MICHIGAN

STATION/POSITION TIME  TEMP    WIND        PRES    WAVE
                       AIR SEA DIR/SP/G            HT/PER
                 (UTC) (F)     (DEG/KT/KT) (MB)    (FT/S)
NORTHPORT PIER   0840   33      CALM  /  3 1013.9S
SISTER BAY       0850   34        CALM       N/A
ALGOMA LAKESHORE 0738             CALM       N/A
KEWAUNEE LAKESHO 0824   33     180/  1/  2 1014.2
SHEBOYGAN LAKESH 0800   35     260/  6/  7 1015.7R
PORT WASHINGTON  0840   36     270/  6/  8 1016.6S
MILWAUKEE LAKESH 0830   35     280/  9/ 10   N/A
KENOSHA   LAKESH 0800   35     280/  9/ 11 1016.6
$$

TC  - TEMPERATURE IN CELSIUS
VSB - VISIBILITY IN STATUTE MILES
WCI - WIND CHILL INDEX
HX  - HEAT INDEX





USA.gov is the U.S. government's official web portal to all federal, state and local government web resources and services.